Terminal Aerodrome Forecast
Issued by NWS

Home | Current Version | Previous Version | Text Only | Print | Product List | Glossary On
Versions: 1 2 3 4 5 6 7 8 9 10 11 12 13 14 15 16 17 18 19 20 21 22 23 24 25
000
FTAK31 PANC 222337
TAFATK
TAF
PATK 222337Z 2300/2324 36004KT P6SM VCSH OVC050
     FM230600 VRB03KT P6SM -SN OVC035
     FM231600 00000KT P6SM BKN070 BKN150=

USA.gov is the U.S. government's official web portal to all federal, state and local government web resources and services.